Weather History for Ashtabula, OH

Change the Weather History Date:

Thursday, March 21, 2013

  Actual Average (KYNG) Record (KYNG)
Temperature  
Mean Temperature 18 °F 38 °F  
Max Temperature 27 °F 48 °F 80 °F (2012)
Min Temperature 10 °F 29 °F 7 °F (1988)
Degree Days  
Heating Degree Days 46 27  
Month to date heating degree days 634  
Since 1 July heating degree days 5282  
Cooling Degree Days 0 0  
Month to date cooling degree days 0  
Year to date cooling degree days 0  
Moisture  
Dew Point 17 °F    
Average Humidity 79    
Maximum Humidity 86    
Minimum Humidity 68    
Precipitation  
Precipitation 0.09 in 0.11 in 0.76 in (1955)
Month to date precipitation 1.91  
Year to date precipitation 6.61  
Snow  
Snow 0.00 in 0.30 in - ()
Month to date snowfall 8.2  
Since 1 July snowfall 57.0  
Snow Depth -    
Sea Level Pressure  
Sea Level Pressure 29.85 in    
Wind  
Wind Speed 10 mph (West)    
Max Wind Speed 17 mph    
Max Gust Speed 28 mph    
Visibility 3 miles    
Events Fog , Snow    
T = Trace of Precipitation, MM = Missing Value Source: NWS Daily Summary

Daily Weather History Graph

Daily Weather History Graph

Search for Another Location

Airport:

Trip Planner

Search our weather history database for the weather conditions in past years. The results will help you decide how hot, cold, wet, or windy it might be!

Date:

Astronomy

Mar. 21, 2013 Rise Set
Actual Time 7:23 AM EDT 7:36 PM EDT
Civil Twilight 6:56 AM EDT 8:04 PM EDT
Nautical Twilight 6:23 AM EDT 8:36 PM EDT
Astronomical Twilight 5:50 AM EDT 9:10 PM EDT
Moon 2:00 PM EDT (3/21) 3:49 AM EDT (3/21)
Length of Visible Light 13h 07m
Length of Day
12h 12m
Waxing Gibbous, 68% of the Moon is Illuminated
Mar 21
Waxing Gibbous
Mar 27
Full
Apr 3
Last Quarter
Apr 10
New
Apr 18
First Quarter

Hourly Weather History & Observations

Time (EDT) Temp. Windchill Dew Point Humidity Pressure Visibility Wind Dir Wind Speed Gust Speed Precip Events Conditions
12:20 AM 21.2 °F 9.5 °F 15.8 °F 80% 29.87 in 2.0 mi West 11.5 mph - 0.00 in Snow Light Snow
12:28 AM 21.2 °F 10.1 °F 15.8 °F 80% 29.87 in 1.2 mi West 10.4 mph - 0.00 in Snow Light Snow
12:35 AM 21.2 °F 13.6 °F 15.8 °F 80% 29.87 in 3.0 mi West 5.8 mph - 0.00 in Snow Light Snow
12:48 AM 19.4 °F 10.4 °F 15.8 °F 86% 29.87 in 9.0 mi West 6.9 mph - 0.00 in   Overcast
12:53 AM 19.9 °F 11.1 °F 15.1 °F 81% 29.91 in 9.0 mi West 6.9 mph - 0.00 in Snow Light Snow
1:16 AM 21.2 °F 10.9 °F 15.8 °F 80% 29.86 in 2.5 mi West 9.2 mph - 0.00 in Snow Light Snow
1:21 AM 21.2 °F 11.7 °F 15.8 °F 80% 29.86 in 3.0 mi West 8.1 mph - 0.00 in Snow Light Snow
1:53 AM 19.9 °F 12.1 °F 14.0 °F 78% 29.90 in 5.0 mi West 5.8 mph - 0.00 in Snow Light Snow
2:11 AM 19.4 °F 10.4 °F 14.0 °F 80% 29.86 in 8.0 mi WSW 6.9 mph - 0.00 in Snow Light Snow
2:39 AM 19.4 °F 10.4 °F 15.8 °F 86% 29.86 in 2.5 mi WSW 6.9 mph - 0.00 in Snow Light Snow
2:44 AM 19.4 °F 10.4 °F 15.8 °F 86% 29.86 in 1.0 mi WSW 6.9 mph - 0.00 in Snow Light Snow
2:53 AM 19.9 °F 13.4 °F 15.1 °F 81% 29.90 in 1.8 mi West 4.6 mph - 0.00 in Snow Light Snow
3:00 AM 19.4 °F 9.5 °F 15.8 °F 86% 29.86 in 2.5 mi West 8.1 mph - 0.00 in Snow Light Snow
3:15 AM 19.4 °F 8.6 °F 15.8 °F 86% 29.85 in 1.5 mi West 9.2 mph - 0.00 in Snow Light Snow
3:20 AM 19.4 °F 9.5 °F 14.0 °F 80% 29.85 in 3.0 mi West 8.1 mph - 0.00 in Snow Light Snow
3:53 AM 16.0 °F 7.4 °F 12.0 °F 84% 29.88 in 9.0 mi WSW 5.8 mph - 0.00 in   Mostly Cloudy
4:04 AM 12.2 °F 2.9 °F 8.6 °F 85% 29.84 in 10.0 mi WSW 5.8 mph - N/A   Scattered Clouds
4:13 AM 15.8 °F 8.6 °F 10.4 °F 79% 29.84 in 3.0 mi West 4.6 mph - 0.00 in Snow Light Snow
4:35 AM 15.8 °F 7.2 °F 10.4 °F 79% 29.84 in 1.8 mi WSW 5.8 mph - 0.00 in Snow Light Snow
4:49 AM 15.8 °F 7.2 °F 12.2 °F 86% 29.83 in 3.0 mi WSW 5.8 mph - 0.00 in Snow Light Snow
4:53 AM 17.1 °F 8.7 °F 12.0 °F 81% 29.87 in 6.0 mi WSW 5.8 mph - 0.00 in Snow Light Snow
5:16 AM 12.2 °F 4.3 °F 8.6 °F 85% 29.83 in 10.0 mi WSW 4.6 mph - 0.01 in   Scattered Clouds
5:53 AM 10.9 °F 2.9 °F 6.1 °F 81% 29.87 in 10.0 mi SW 4.6 mph - 0.01 in   Scattered Clouds
6:53 AM 16.0 °F 6.3 °F 10.0 °F 77% 29.87 in 2.5 mi SW 6.9 mph - 0.00 in Snow Light Snow
7:07 AM 15.8 °F 7.2 °F 10.4 °F 79% 29.83 in 8.0 mi WSW 5.8 mph - 0.00 in Snow Light Snow
7:53 AM 17.1 °F 5.8 °F 10.9 °F 77% 29.87 in 10.0 mi SW 9.2 mph - 0.00 in   Overcast
8:17 AM 17.6 °F 6.4 °F 12.2 °F 79% 29.82 in 1.8 mi WSW 9.2 mph - 0.00 in Snow Light Snow
8:23 AM 15.8 °F 5.1 °F 10.4 °F 79% 29.82 in 3.0 mi WSW 8.1 mph - 0.00 in Snow Light Snow
8:53 AM 18.0 °F 8.7 °F 12.0 °F 78% 29.86 in 10.0 mi SW 6.9 mph - 0.00 in   Mostly Cloudy
9:22 AM 19.4 °F 9.5 °F 12.2 °F 74% 29.82 in 2.0 mi WSW 8.1 mph - 0.00 in Snow Light Snow
9:33 AM 19.4 °F 9.5 °F 12.2 °F 74% 29.83 in 4.0 mi WSW 8.1 mph - 0.00 in Snow Light Snow
9:53 AM 19.9 °F 11.1 °F 12.9 °F 74% 29.87 in 7.0 mi WSW 6.9 mph - 0.00 in Snow Light Snow
10:44 AM 21.2 °F 8.3 °F 12.2 °F 68% 29.83 in 2.5 mi West 13.8 mph 18.4 mph 0.00 in Snow Light Snow
10:53 AM 21.9 °F 10.4 °F 12.9 °F 68% 29.87 in 1.8 mi West 11.5 mph - 0.00 in Snow Light Snow
11:02 AM 21.2 °F 9.5 °F 12.2 °F 68% 29.83 in 2.5 mi WSW 11.5 mph - 0.00 in Snow Light Snow
11:07 AM 21.2 °F 8.9 °F 14.0 °F 74% 29.83 in 5.0 mi WSW 12.7 mph - 0.00 in Snow Light Snow
11:32 AM 21.2 °F 9.5 °F 14.0 °F 74% 29.83 in 5.0 mi WSW 11.5 mph - 0.00 in Snow Light Snow
11:40 AM 21.2 °F 8.9 °F 15.8 °F 80% 29.83 in 1.8 mi WSW 12.7 mph - 0.00 in Snow Light Snow
11:53 AM 21.9 °F 9.8 °F 16.0 °F 78% 29.86 in 1.5 mi WSW 12.7 mph - 0.00 in Snow Light Snow
12:04 PM 23.0 °F 11.7 °F 15.8 °F 74% 29.83 in 1.0 mi WSW 11.5 mph - 0.00 in Snow Light Snow
12:14 PM 21.2 °F 8.3 °F 15.8 °F 80% 29.83 in 0.8 mi WSW 13.8 mph - 0.00 in Snow Light Snow
12:40 PM 21.2 °F 7.8 °F 15.8 °F 80% 29.83 in 1.2 mi WSW 15.0 mph 18.4 mph 0.00 in Snow Light Snow
12:53 PM 23.0 °F 11.1 °F 16.0 °F 74% 29.87 in 1.0 mi West 12.7 mph - 0.00 in Snow Light Snow
1:15 PM 24.8 °F 12.9 °F 17.6 °F 74% 29.82 in 1.5 mi WSW 13.8 mph - 0.00 in Snow Light Snow
1:39 PM 24.8 °F 13.4 °F 17.6 °F 74% 29.82 in 2.0 mi West 12.7 mph - 0.00 in Snow Light Snow
1:46 PM 24.8 °F 14.6 °F 17.6 °F 74% 29.83 in 1.2 mi WSW 10.4 mph - 0.00 in Snow Light Snow
1:50 PM 24.8 °F 14.0 °F 17.6 °F 74% 29.83 in 0.8 mi West 11.5 mph - 0.00 in Snow Light Snow
1:53 PM 24.1 °F 14.4 °F 18.0 °F 77% 29.86 in 0.8 mi West 9.2 mph - 0.00 in Snow Light Snow
2:53 PM 24.1 °F 10.6 °F 18.0 °F 77% 29.86 in 0.5 mi West 17.3 mph 27.6 mph 0.00 in Snow Snow
3:13 PM 24.8 °F 12.4 °F 17.6 °F 74% 29.82 in 0.8 mi West 15.0 mph - 0.00 in Snow Light Snow
3:22 PM 24.8 °F 12.4 °F 19.4 °F 80% 29.82 in 0.5 mi WSW 15.0 mph - 0.00 in Snow Snow
3:53 PM 25.0 °F 13.1 °F 19.0 °F 78% 29.86 in 0.8 mi West 13.8 mph 19.6 mph 0.00 in Snow Light Snow
4:04 PM 24.8 °F 14.0 °F 19.4 °F 80% 29.82 in 1.0 mi West 11.5 mph - 0.00 in Snow Light Snow
4:12 PM 24.8 °F 13.4 °F 19.4 °F 80% 29.82 in 2.0 mi West 12.7 mph - 0.00 in Snow Light Snow
4:21 PM 24.8 °F 14.6 °F 19.4 °F 80% 29.82 in 5.0 mi West 10.4 mph - 0.00 in Snow Light Snow
4:34 PM 26.6 °F 15.7 °F 19.4 °F 74% 29.82 in 2.0 mi West 12.7 mph 19.6 mph 0.00 in Snow Light Snow
4:53 PM 26.1 °F 14.0 °F 19.9 °F 78% 29.86 in 2.0 mi West 15.0 mph - 0.00 in Snow Light Snow
5:00 PM 26.6 °F 15.7 °F 19.4 °F 74% 29.82 in 1.2 mi West 12.7 mph - 0.00 in Snow Light Snow
5:08 PM 26.6 °F 15.7 °F 21.2 °F 80% 29.82 in 1.0 mi West 12.7 mph 20.7 mph 0.00 in Snow Light Snow
5:19 PM 26.6 °F 14.3 °F 19.4 °F 74% 29.82 in 0.8 mi West 16.1 mph - 0.00 in Snow Light Snow
5:28 PM 26.6 °F 15.2 °F 19.4 °F 74% 29.82 in 1.2 mi West 13.8 mph - 0.00 in Snow Light Snow
5:43 PM 26.6 °F 16.2 °F 21.2 °F 80% 29.83 in 1.0 mi West 11.5 mph - 0.00 in Snow Light Snow
5:53 PM 26.1 °F 15.6 °F 21.0 °F 81% 29.87 in 1.0 mi West 11.5 mph 20.7 mph 0.00 in Snow Light Snow
6:00 PM 26.6 °F 15.2 °F 21.2 °F 80% 29.83 in 0.5 mi West 13.8 mph - 0.00 in Snow Snow
6:30 PM 26.6 °F 15.7 °F 21.2 °F 80% 29.82 in 0.5 mi West 12.7 mph - 0.00 in Snow Snow
6:49 PM 26.6 °F 19.1 °F 21.2 °F 80% 29.83 in 0.2 mi WNW 6.9 mph - 0.02 in Fog , Snow Snow
6:53 PM 26.1 °F 17.6 °F 21.9 °F 84% 29.87 in 0.2 mi WNW 8.1 mph - 0.03 in Fog , Snow Snow
7:03 PM 26.6 °F 14.7 °F 21.2 °F 80% 29.83 in 1.0 mi WNW 15.0 mph 18.4 mph 0.00 in Snow Light Snow
7:15 PM 26.6 °F 14.7 °F 21.2 °F 80% 29.83 in 1.5 mi West 15.0 mph 23.0 mph 0.00 in Snow Light Snow
7:18 PM 26.6 °F 14.7 °F 21.2 °F 80% 29.83 in 2.0 mi WNW 15.0 mph 23.0 mph 0.00 in Snow Light Snow
7:20 PM 26.6 °F 14.3 °F 21.2 °F 80% 29.83 in 3.0 mi West 16.1 mph 23.0 mph 0.00 in Snow Light Snow
7:45 PM 26.6 °F 17.5 °F 21.2 °F 80% 29.83 in 4.0 mi WNW 9.2 mph 17.3 mph 0.00 in Snow Light Snow
7:53 PM 27.0 °F 16.1 °F 21.0 °F 78% 29.87 in 5.0 mi WNW 12.7 mph 20.7 mph 0.00 in Snow Light Snow
8:01 PM 26.6 °F 16.2 °F 21.2 °F 80% 29.83 in 4.0 mi WNW 11.5 mph - 0.00 in Snow Light Snow
8:06 PM 26.6 °F 16.2 °F 21.2 °F 80% 29.83 in 5.0 mi West 11.5 mph - 0.00 in Snow Light Snow
8:49 PM 26.6 °F 16.8 °F 21.2 °F 80% 29.84 in 4.0 mi West 10.4 mph - 0.00 in Snow Light Snow
8:53 PM 27.0 °F 17.3 °F 21.0 °F 78% 29.87 in 4.0 mi West 10.4 mph - 0.00 in Snow Light Snow
9:14 PM 26.6 °F 15.2 °F 21.2 °F 80% 29.84 in 1.2 mi West 13.8 mph - 0.00 in Snow Light Snow
9:35 PM 26.6 °F 17.5 °F 21.2 °F 80% 29.84 in 1.8 mi West 9.2 mph 18.4 mph 0.00 in Snow Light Snow
9:49 PM 26.6 °F 18.2 °F 21.2 °F 80% 29.84 in 2.0 mi West 8.1 mph - 0.01 in Snow Light Snow
9:53 PM 27.0 °F 16.7 °F 21.9 °F 81% 29.87 in 3.0 mi West 11.5 mph - 0.01 in Snow Light Snow
10:02 PM 26.6 °F 15.2 °F 21.2 °F 80% 29.84 in 1.8 mi West 13.8 mph - 0.00 in Snow Light Snow
10:09 PM 26.6 °F 16.2 °F 21.2 °F 80% 29.84 in 1.5 mi West 11.5 mph - 0.00 in Snow Light Snow
10:14 PM 26.6 °F 17.5 °F 21.2 °F 80% 29.84 in 3.0 mi West 9.2 mph - 0.00 in Snow Light Snow
10:23 PM 26.6 °F 15.7 °F 21.2 °F 80% 29.83 in 2.5 mi West 12.7 mph - 0.00 in Snow Light Snow
10:29 PM 26.6 °F 15.7 °F 21.2 °F 80% 29.85 in 1.5 mi WNW 12.7 mph 20.7 mph 0.00 in Snow Light Snow
10:31 PM 26.6 °F 15.7 °F 21.2 °F 80% 29.85 in 1.0 mi NW 12.7 mph 20.7 mph 0.00 in Snow Light Snow
10:34 PM 26.6 °F 16.2 °F 21.2 °F 80% 29.85 in 0.5 mi NW 11.5 mph 20.7 mph 0.00 in Fog , Snow Snow
10:49 PM 26.6 °F 17.5 °F 21.2 °F 80% 29.85 in 1.2 mi NW 9.2 mph - 0.01 in Snow Light Snow
10:53 PM 26.1 °F 16.8 °F 21.0 °F 81% 29.88 in 1.5 mi NW 9.2 mph - 0.01 in Snow Light Snow
11:09 PM 26.6 °F 19.1 °F 21.2 °F 80% 29.85 in 1.5 mi NW 6.9 mph - 0.00 in Snow Light Snow
11:14 PM 26.6 °F 19.1 °F 21.2 °F 80% 29.85 in 2.0 mi NW 6.9 mph - 0.00 in Snow Light Snow
11:23 PM 26.6 °F 15.2 °F 21.2 °F 80% 29.85 in 1.0 mi NW 13.8 mph 17.3 mph 0.01 in Snow Light Snow
11:28 PM 26.6 °F 17.5 °F 21.2 °F 80% 29.85 in 0.8 mi NW 9.2 mph 17.3 mph 0.01 in Snow Light Snow
11:32 PM 26.6 °F 16.8 °F 21.2 °F 80% 29.85 in 1.0 mi NW 10.4 mph - 0.01 in Snow Light Snow
11:38 PM 26.6 °F 17.5 °F 21.2 °F 80% 29.85 in 2.0 mi NW 9.2 mph - 0.01 in Snow Light Snow
11:40 PM 26.6 °F 16.8 °F 21.2 °F 80% 29.85 in 1.8 mi NW 10.4 mph - 0.01 in Snow Light Snow
11:44 PM 26.6 °F 20.0 °F 21.2 °F 80% 29.85 in 1.0 mi NNW 5.8 mph - 0.01 in Snow Light Snow
11:51 PM 26.6 °F 19.1 °F 21.2 °F 80% 29.85 in 0.5 mi NNW 6.9 mph - 0.02 in Fog , Snow Snow
11:53 PM 26.1 °F 18.4 °F 21.9 °F 84% 29.88 in 0.5 mi NNW 6.9 mph - 0.03 in Fog , Snow Snow